TimeEDT,TemperatureF,Dew PointF,Humidity,Sea Level PressureIn,VisibilityMPH,Wind Direction,Wind SpeedMPH,Gust SpeedMPH,PrecipitationIn,Events,Conditions,WindDirDegrees,DateUTC
12:05 AM,71.6,66.2,83,30.42,10.0,WNW,3.5,-,N/A,,Clear,300,2013-07-16 04:05:00
12:25 AM,69.8,68.0,94,30.42,10.0,NW,3.5,-,N/A,,Clear,310,2013-07-16 04:25:00
12:45 AM,69.8,66.2,88,30.42,10.0,WNW,3.5,-,N/A,,Clear,300,2013-07-16 04:45:00
1:05 AM,69.8,66.2,88,30.42,10.0,Calm,Calm,-,N/A,,Clear,0,2013-07-16 05:05:00
1:25 AM,69.8,68.0,94,30.42,10.0,WNW,3.5,-,N/A,,Clear,290,2013-07-16 05:25:00
1:45 AM,69.8,68.0,94,30.42,10.0,WNW,3.5,-,N/A,,Clear,290,2013-07-16 05:45:00
2:05 AM,69.8,68.0,94,30.41,10.0,WNW,3.5,-,N/A,,Clear,290,2013-07-16 06:05:00
2:25 AM,69.8,68.0,94,30.41,10.0,WNW,4.6,-,N/A,,Clear,290,2013-07-16 06:25:00
2:45 AM,69.8,68.0,94,30.41,10.0,WNW,4.6,-,N/A,,Clear,290,2013-07-16 06:45:00
3:05 AM,69.8,68.0,94,30.41,10.0,West,3.5,-,N/A,,Clear,280,2013-07-16 07:05:00
3:25 AM,69.8,68.0,94,30.41,10.0,WNW,4.6,-,N/A,,Clear,290,2013-07-16 07:25:00
3:45 AM,69.8,68.0,94,30.41,10.0,West,3.5,-,N/A,,Clear,280,2013-07-16 07:45:00
4:05 AM,69.8,68.0,94,30.41,10.0,West,4.6,-,N/A,,Clear,280,2013-07-16 08:05:00
4:25 AM,69.8,68.0,94,30.41,10.0,West,3.5,-,N/A,,Clear,280,2013-07-16 08:25:00
4:45 AM,69.8,68.0,94,30.41,10.0,WNW,4.6,-,N/A,,Scattered Clouds,290,2013-07-16 08:45:00
5:05 AM,69.8,68.0,94,30.41,10.0,WNW,4.6,-,N/A,,Scattered Clouds,290,2013-07-16 09:05:00
5:25 AM,69.8,68.0,94,30.41,10.0,West,3.5,-,N/A,,Mostly Cloudy,280,2013-07-16 09:25:00
5:45 AM,69.8,68.0,94,30.42,10.0,West,4.6,-,N/A,,Scattered Clouds,280,2013-07-16 09:45:00
6:05 AM,69.8,68.0,94,30.42,10.0,WNW,3.5,-,N/A,,Clear,290,2013-07-16 10:05:00
6:25 AM,69.8,68.0,94,30.43,10.0,West,3.5,-,N/A,,Clear,280,2013-07-16 10:25:00
6:45 AM,69.8,68.0,94,30.43,10.0,West,3.5,-,N/A,,Clear,280,2013-07-16 10:45:00
7:05 AM,69.8,68.0,94,30.43,10.0,West,4.6,-,N/A,,Mostly Cloudy,280,2013-07-16 11:05:00
7:25 AM,69.8,68.0,94,30.43,10.0,WNW,3.5,-,N/A,,Mostly Cloudy,290,2013-07-16 11:25:00
8:05 AM,69.8,68.0,94,30.44,10.0,WNW,3.5,-,N/A,,Overcast,290,2013-07-16 12:05:00
8:25 AM,71.6,69.8,94,30.44,10.0,NW,3.5,-,N/A,,Overcast,310,2013-07-16 12:25:00
8:45 AM,71.6,69.8,94,30.45,10.0,WNW,4.6,-,N/A,,Overcast,300,2013-07-16 12:45:00
9:05 AM,71.6,69.8,94,30.45,10.0,WNW,4.6,-,N/A,,Overcast,300,2013-07-16 13:05:00
9:25 AM,73.4,71.6,94,30.45,10.0,North,4.6,-,N/A,,Scattered Clouds,350,2013-07-16 13:25:00
9:45 AM,73.4,71.6,94,30.45,10.0,NNW,4.6,-,N/A,,Scattered Clouds,330,2013-07-16 13:45:00
10:05 AM,73.4,71.6,94,30.45,10.0,NW,6.9,-,N/A,,Overcast,310,2013-07-16 14:05:00
10:20 AM,77.0,71.6,83,30.45,10.0,NW,6.9,-,N/A,,Mostly Cloudy,310,2013-07-16 14:20:00
1:45 PM,80.6,69.8,70,30.41,-9999.0,North,4.6,-,N/A,,Unknown,360,2013-07-16 17:45:00
2:05 PM,78.8,69.8,74,30.41,10.0,NW,5.8,-,N/A,,Mostly Cloudy,320,2013-07-16 18:05:00
2:25 PM,80.6,69.8,70,30.41,10.0,NW,6.9,-,N/A,,Scattered Clouds,310,2013-07-16 18:25:00
2:45 PM,80.6,69.8,70,30.41,10.0,North,3.5,-,N/A,,Scattered Clouds,350,2013-07-16 18:45:00
3:05 PM,82.4,68.0,62,30.40,10.0,NNW,4.6,-,N/A,,Scattered Clouds,340,2013-07-16 19:05:00
3:25 PM,82.4,69.8,66,30.39,10.0,NNW,4.6,-,N/A,,Scattered Clouds,330,2013-07-16 19:25:00
3:45 PM,82.4,69.8,66,30.39,10.0,NNW,4.6,-,N/A,,Scattered Clouds,340,2013-07-16 19:45:00
4:05 PM,82.4,69.8,66,30.39,10.0,NW,4.6,-,N/A,,Clear,310,2013-07-16 20:05:00
4:25 PM,82.4,68.0,62,30.39,10.0,NW,6.9,-,N/A,,Scattered Clouds,320,2013-07-16 20:25:00
4:45 PM,82.4,69.8,66,30.38,10.0,WNW,4.6,-,N/A,,Scattered Clouds,300,2013-07-16 20:45:00
5:05 PM,82.4,69.8,66,30.39,10.0,NW,5.8,-,N/A,,Scattered Clouds,310,2013-07-16 21:05:00
5:25 PM,80.6,69.8,70,30.39,10.0,NNW,5.8,-,N/A,,Mostly Cloudy,330,2013-07-16 21:25:00
5:45 PM,77.0,69.8,78,30.39,10.0,WNW,4.6,-,N/A,,Overcast,290,2013-07-16 21:45:00
6:05 PM,75.2,71.6,89,30.39,10.0,WNW,5.8,-,N/A,,Scattered Clouds,300,2013-07-16 22:05:00
6:25 PM,73.4,71.6,94,30.37,10.0,WNW,6.9,-,N/A,,Clear,300,2013-07-16 22:25:00
6:45 PM,71.6,71.6,100,30.39,7.0,West,4.6,-,N/A,,Mostly Cloudy,280,2013-07-16 22:45:00
7:05 PM,71.6,71.6,100,30.40,7.0,West,4.6,-,N/A,,Scattered Clouds,280,2013-07-16 23:05:00
7:25 PM,69.8,69.8,100,30.40,7.0,NW,4.6,-,N/A,,Clear,310,2013-07-16 23:25:00
7:45 PM,69.8,69.8,100,30.40,7.0,NW,3.5,-,N/A,,Scattered Clouds,310,2013-07-16 23:45:00
8:05 PM,69.8,69.8,100,30.40,5.0,Calm,Calm,-,N/A,,Scattered Clouds,0,2013-07-17 00:05:00
8:25 PM,69.8,69.8,100,30.40,4.0,Calm,Calm,-,N/A,,Clear,0,2013-07-17 00:25:00
8:45 PM,69.8,69.8,100,30.39,7.0,NW,3.5,-,N/A,,Clear,310,2013-07-17 00:45:00
9:05 PM,69.8,69.8,100,30.39,10.0,Calm,Calm,-,N/A,,Clear,0,2013-07-17 01:05:00
9:25 PM,68.0,68.0,100,30.40,10.0,NW,3.5,-,N/A,,Clear,310,2013-07-17 01:25:00
9:45 PM,68.0,68.0,100,30.41,10.0,NNW,4.6,-,N/A,,Clear,330,2013-07-17 01:45:00
10:05 PM,69.8,69.8,100,30.41,10.0,NNW,4.6,-,N/A,,Clear,330,2013-07-17 02:05:00
10:25 PM,69.8,69.8,100,30.41,10.0,NW,3.5,-,N/A,,Clear,320,2013-07-17 02:25:00
10:45 PM,69.8,69.8,100,30.41,10.0,NW,3.5,-,N/A,,Scattered Clouds,320,2013-07-17 02:45:00
11:05 PM,68.0,68.0,100,30.41,10.0,NW,3.5,-,N/A,,Scattered Clouds,320,2013-07-17 03:05:00
11:25 PM,68.0,68.0,100,30.41,10.0,NW,3.5,-,N/A,,Clear,320,2013-07-17 03:25:00
11:45 PM,68.0,68.0,100,30.41,10.0,NW,3.5,-,N/A,,Clear,320,2013-07-17 03:45:00